Regional Weather Roundup
Issued by NWS Mobile, AL

Home | Current Version | Previous Version | Text Only | Print | Product List | Glossary On
Versions: 1 2 3 4 5 6 7 8 9 10 11 12 13 14 15 16 17 18 19 20 21 22 23 24 25 26 27
000
ASUS44 KMOB 181912
RWRMOB
REGIONAL WEATHER ROUNDUP
NATIONAL WEATHER SERVICE MOBILE AL
100 PM CST SAT NOV 18 2017

NOTE: "FAIR" INDICATES FEW OR NO CLOUDS BELOW 12,000 FEET WITH NO
      SIGNIFICANT WEATHER AND/OR OBSTRUCTIONS TO VISIBILITY.

  * THESE STATIONS ARE PART OF THE UNIVERSITY OF SOUTH ALABAMA
    MESONET AND ARE NOT UNDER NWS OR FAA QUALITY CONTROL.

ALZ061>064-182000-
COASTAL ALABAMA

CITY           SKY/WX    TMP DP  RH WIND       PRES   REMARKS
MOBILE REG APT PTSUNNY   79  62  56 SW14G24   29.87F
BROOKLEY FIELD MOSUNNY   80  62  54 SW14G25   29.89F
USA CAMPUS*    NOT AVBL
DOG RIVER*     NOT AVBL


CITY           SKY/WX    TMP DP  RH WIND       PRES   REMARKS
GULF SHORES    PTSUNNY   78  67  68 MISG      29.89F

$$

ALZ051>060-182000-
INTERIOR SOUTHWEST AND SOUTH CENTRAL ALABAMA

CITY           SKY/WX    TMP DP  RH WIND       PRES   REMARKS
GREENVILLE     PTSUNNY   74  61  63 SW9       29.83F
EVERGREEN      PTSUNNY   76  63  64 SW12      29.86F
ATMORE*          N/A    N/A N/A N/A W13         N/A
ANDALUSIA/OPP  CLOUDY    77  63  61 S9        29.87F
ANDALUSIA*       N/A     73  64  73 S6        29.88F
FLORALA APT    CLOUDY    73  62  68 S15       29.92F
FLORALA*         N/A     72  64  78 E6        30.55F

$$

FLZ001>006-182000-
WESTERN FLORIDA PANHANDLE

CITY           SKY/WX    TMP DP  RH WIND       PRES   REMARKS
PENSACOLA      PTSUNNY   79  65  62 SW20G26   29.89F
NAS PENSACOLA  PTSUNNY   78  66  66 SW15G21   29.89F
MILTON         NOT AVBL
WHTNG S FIELD  CLOUDY    75  64  68 SW8       29.89F


CITY           SKY/WX    TMP DP  RH WIND       PRES   REMARKS
JAY*             N/A     75  63  64 S13       29.88F
DUKE FIELD     PTSUNNY   76  62  62 S18       29.89F
CRESTVIEW      CLOUDY    75  62  64 S10       29.91F
VALPARAISO     CLOUDY    74  64  69 S10G17    29.90F
DESTIN         CLOUDY    78  64  61 VRB6      29.90F

$$

MSZ076-079-182000-
INTERIOR SOUTHEAST MISSISSIPPI

CITY           SKY/WX    TMP DP  RH WIND       PRES   REMARKS
LEAKESVILLE*     N/A     77  63  61 SW16      29.84F
AGRICOLA*        N/A     77  64  65 S7        29.85F

$$

MARINE OBSERVATIONS

STATION/POSITION TIME  TEMP    WIND        PRES    WAVE
                       AIR SEA DIR/SP/G            HT/PER
                 (UTC) (F)     (DEG/KT/KT) (MB)    (FT/S)
KATRINA CUT      1830   73     220/ 14     1012.9F
CEDAR POINT      1830   72     230/ 13     1012.5F
E DAUPHIN ISLAND 1900   74     210/  8/ 11 1011.7F
MIDDLE BAY LIGHT 1830   71     210/ 17     1012.2F
MEAHER PARK      1830   73     200/ 13     1012.2F
WEEKS BAY        1745   77                 1013.0F
12 S ORANGE BCH  NOT AVBL
64 S DAUPHIN ISL 1850   77 78  210/ 16/ 19 1013.0F   4/ 5
67 S FORT MORGAN 1830   76     220/ 17     1013.5F

$$

SELECTED LOCATIONS ACROSS THE REGION

CITY           SKY/WX    TMP DP  RH WIND       PRES   REMARKS
NEW ORLEANS    PTSUNNY   82  66  58 SW15G28   29.85F
GULFPORT       CLOUDY    77  67  71 S13G24    29.85F
PASCAGOULA AP  SUNNY     78  64  61 S9G22     29.87F
PASCAGOULA*      N/A     73  66  78 SW15        N/A
HATTIESBURG    PTSUNNY   80  65  59 SW20G29   29.83F
LAUREL         CLOUDY    77  64  64 S14G25    29.83F
MERIDIAN       CLOUDY    77  64  64 SW13G28   29.78F
JACKSON        CLOUDY    79  64  60 SW16G23   29.77F
MONTGOMERY     CLOUDY    76  61  59 S12G21    29.83F
TROY           CLOUDY    73  61  65 S13G21    29.87F
ASHFORD*         N/A     73  64  73 S6        29.88F
DOTHAN         CLOUDY    76  60  57 S16G23    29.93F
PANAMA CITY    MOSUNNY   76  62  62 S14       29.92F

$$





USA.gov is the U.S. government's official web portal to all federal, state and local government web resources and services.